Time,TemperatureF,DewpointF,PressureIn,WindDirection,WindDirectionDegrees,WindSpeedMPH,WindSpeedGustMPH,Humidity,HourlyPrecipIn,Conditions,Clouds,dailyrainin,SoftwareType,DateUTC
2013-03-13 00:04:00,47.7,47.1,30.22,WSW,238,4.0,5.0,98,0.00,,,0.00,meteohub,2013-03-12 10:04:00,
2013-03-13 00:09:00,47.5,46.9,30.23,WSW,245,5.0,6.0,98,0.00,,,0.00,meteohub,2013-03-12 10:09:00,
2013-03-13 00:14:00,47.1,46.6,30.22,WSW,252,5.0,6.0,98,0.00,,,0.00,meteohub,2013-03-12 10:14:00,
2013-03-13 00:19:00,46.2,45.5,30.22,SW,222,8.0,8.0,97,0.00,,,0.00,meteohub,2013-03-12 10:19:00,
2013-03-13 00:24:00,45.9,45.3,30.22,SW,214,9.0,9.0,98,0.00,,,0.00,meteohub,2013-03-12 10:24:00,
2013-03-13 00:30:00,45.3,44.8,30.23,SW,219,7.0,10.0,98,0.00,,,0.00,meteohub,2013-03-12 10:30:00,
2013-03-13 00:35:00,45.3,44.8,30.23,SW,222,6.0,10.0,98,0.00,,,0.00,meteohub,2013-03-12 10:35:00,
2013-03-13 00:40:00,45.7,45.5,30.23,SW,220,6.0,9.0,99,0.00,,,0.00,meteohub,2013-03-12 10:40:00,
2013-03-13 00:45:00,46.0,45.9,30.23,SW,219,7.0,8.0,99,0.00,,,0.00,meteohub,2013-03-12 10:45:00,
2013-03-13 00:50:00,46.6,46.4,30.23,SW,223,6.0,8.0,99,0.00,,,0.00,meteohub,2013-03-12 10:50:00,
2013-03-13 00:55:00,46.4,46.2,30.22,SSW,213,7.0,8.0,99,0.00,,,0.00,meteohub,2013-03-12 10:55:00,
2013-03-13 01:00:00,46.2,46.0,30.22,SSW,202,3.0,8.0,99,0.00,,,0.00,meteohub,2013-03-12 11:00:00,
2013-03-13 01:06:00,46.2,46.0,30.21,SSE,167,5.0,8.0,99,0.00,,,0.00,meteohub,2013-03-12 11:06:00,
2013-03-13 01:11:00,46.2,46.0,30.21,SSE,161,6.0,8.0,99,0.00,,,0.00,meteohub,2013-03-12 11:11:00,
2013-03-13 01:16:00,46.8,46.6,30.22,SSE,162,7.0,7.0,99,0.00,,,0.00,meteohub,2013-03-12 11:16:00,
2013-03-13 01:22:00,46.2,46.0,30.22,SSE,166,7.0,7.0,99,0.00,,,0.00,meteohub,2013-03-12 11:22:00,
2013-03-13 01:27:00,46.8,46.6,30.21,SSE,164,6.0,7.0,99,0.00,,,0.00,meteohub,2013-03-12 11:27:00,
2013-03-13 01:32:00,46.8,46.6,30.21,South,169,5.0,7.0,99,0.00,,,0.00,meteohub,2013-03-12 11:32:00,
2013-03-13 01:37:00,46.6,46.4,30.20,SSE,167,4.0,7.0,99,0.00,,,0.00,meteohub,2013-03-12 11:37:00,
2013-03-13 01:42:00,46.6,46.4,30.20,SSE,160,5.0,7.0,99,0.00,,,0.00,meteohub,2013-03-12 11:42:00,
2013-03-13 01:48:00,46.8,46.6,30.19,SSE,163,4.0,6.0,99,0.00,,,0.00,meteohub,2013-03-12 11:48:00,
2013-03-13 01:53:00,46.8,46.6,30.20,SE,143,6.0,6.0,99,0.00,,,0.00,meteohub,2013-03-12 11:53:00,
2013-03-13 01:58:00,46.6,46.4,30.20,South,179,4.0,6.0,99,0.00,,,0.00,meteohub,2013-03-12 11:58:00,
2013-03-13 02:03:00,46.6,46.4,30.21,SSW,199,4.0,6.0,99,0.00,,,0.00,meteohub,2013-03-12 12:03:00,
2013-03-13 02:08:00,46.6,46.4,30.21,SSW,193,4.0,6.0,99,0.00,,,0.00,meteohub,2013-03-12 12:08:00,
2013-03-13 02:14:00,46.6,46.4,30.22,SW,220,5.0,5.0,99,0.00,,,0.00,meteohub,2013-03-12 12:14:00,
2013-03-13 02:19:00,46.4,46.2,30.22,SW,214,3.0,5.0,99,0.00,,,0.00,meteohub,2013-03-12 12:19:00,
2013-03-13 02:24:00,46.4,46.2,30.22,SSW,204,4.0,5.0,99,0.00,,,0.00,meteohub,2013-03-12 12:24:00,
2013-03-13 02:29:00,46.2,46.0,30.21,South,169,3.0,5.0,99,0.00,,,0.00,meteohub,2013-03-12 12:29:00,
2013-03-13 02:34:00,46.2,46.0,30.21,South,173,3.0,5.0,99,0.00,,,0.00,meteohub,2013-03-12 12:34:00,
2013-03-13 02:40:00,46.0,45.9,30.21,South,186,2.0,4.0,99,0.00,,,0.00,meteohub,2013-03-12 12:40:00,
2013-03-13 02:45:00,46.0,45.9,30.21,SW,227,3.0,4.0,99,0.00,,,0.00,meteohub,2013-03-12 12:45:00,
2013-03-13 02:50:00,46.0,45.9,30.22,WSW,250,4.0,5.0,99,0.00,,,0.00,meteohub,2013-03-12 12:50:00,
2013-03-13 02:56:00,45.9,45.7,30.22,WSW,243,4.0,5.0,99,0.00,,,0.00,meteohub,2013-03-12 12:56:00,
2013-03-13 03:01:00,45.9,45.7,30.22,WSW,258,4.0,5.0,99,0.00,,,0.00,meteohub,2013-03-12 13:01:00,
2013-03-13 03:06:00,45.7,45.5,30.22,West,268,4.0,5.0,99,0.00,,,0.00,meteohub,2013-03-12 13:06:00,
2013-03-13 03:11:00,45.5,45.3,30.22,West,276,5.0,5.0,99,0.00,,,0.00,meteohub,2013-03-12 13:11:00,
2013-03-13 03:16:00,45.7,45.5,30.22,WNW,282,6.0,6.0,99,0.00,,,0.00,meteohub,2013-03-12 13:16:00,
2013-03-13 03:21:00,45.7,45.5,30.22,West,277,5.0,6.0,99,0.00,,,0.00,meteohub,2013-03-12 13:21:00,
2013-03-13 03:26:00,45.7,45.5,30.22,West,280,5.0,7.0,99,0.00,,,0.00,meteohub,2013-03-12 13:26:00,
2013-03-13 03:31:00,45.7,45.5,30.22,West,277,4.0,7.0,99,0.00,,,0.00,meteohub,2013-03-12 13:31:00,
2013-03-13 03:37:00,45.5,45.3,30.22,West,262,5.0,7.0,99,0.00,,,0.00,meteohub,2013-03-12 13:37:00,
2013-03-13 03:42:00,45.5,45.3,30.22,SW,233,5.0,6.0,99,0.00,,,0.00,meteohub,2013-03-12 13:42:00,
2013-03-13 03:47:00,45.7,45.5,30.22,SW,221,6.0,6.0,99,0.00,,,0.00,meteohub,2013-03-12 13:47:00,
2013-03-13 03:53:00,45.7,45.5,30.21,SSW,203,5.0,7.0,99,0.00,,,0.00,meteohub,2013-03-12 13:53:00,
2013-03-13 03:58:00,45.7,45.5,30.21,SW,218,6.0,7.0,99,0.00,,,0.00,meteohub,2013-03-12 13:58:00,
2013-03-13 04:03:00,45.9,45.7,30.21,SW,214,6.0,7.0,99,0.00,,,0.00,meteohub,2013-03-12 14:03:00,
2013-03-13 04:08:00,45.9,45.7,30.21,SSW,212,5.0,7.0,99,0.00,,,0.00,meteohub,2013-03-12 14:08:00,
2013-03-13 04:14:00,46.0,45.9,30.21,SSW,212,4.0,7.0,99,0.00,,,0.00,meteohub,2013-03-12 14:14:00,
2013-03-13 04:19:00,46.4,46.2,30.21,SW,215,7.0,7.0,99,0.00,,,0.00,meteohub,2013-03-12 14:19:00,
2013-03-13 04:24:00,46.6,46.4,30.21,SSW,213,6.0,8.0,99,0.00,,,0.00,meteohub,2013-03-12 14:24:00,
2013-03-13 04:29:00,46.2,46.0,30.21,SSW,206,5.0,8.0,99,0.00,,,0.00,meteohub,2013-03-12 14:29:00,
2013-03-13 04:34:00,46.2,46.0,30.21,South,185,3.0,8.0,99,0.00,,,0.00,meteohub,2013-03-12 14:34:00,
2013-03-13 04:40:00,46.2,46.0,30.21,SSW,208,2.0,8.0,99,0.00,,,0.00,meteohub,2013-03-12 14:40:00,
2013-03-13 04:45:00,46.2,46.0,30.22,SSW,206,2.0,6.0,99,0.00,,,0.00,meteohub,2013-03-12 14:45:00,
2013-03-13 04:50:00,46.2,46.0,30.22,SSW,209,3.0,4.0,99,0.00,,,0.00,meteohub,2013-03-12 14:50:00,
2013-03-13 04:55:00,46.0,45.9,30.22,SSW,195,2.0,5.0,99,0.00,,,0.00,meteohub,2013-03-12 14:55:00,
2013-03-13 05:00:00,46.0,45.9,30.22,SSW,192,2.0,5.0,99,0.00,,,0.00,meteohub,2013-03-12 15:00:00,
2013-03-13 05:05:00,46.0,45.9,30.22,South,171,3.0,4.0,99,0.00,,,0.00,meteohub,2013-03-12 15:05:00,
2013-03-13 05:10:00,46.2,46.0,30.22,South,172,2.0,4.0,99,0.00,,,0.00,meteohub,2013-03-12 15:10:00,
2013-03-13 05:16:00,46.0,45.9,30.22,South,180,2.0,4.0,99,0.00,,,0.00,meteohub,2013-03-12 15:16:00,
2013-03-13 05:21:00,46.0,45.9,30.22,South,177,4.0,4.0,99,0.00,,,0.00,meteohub,2013-03-12 15:21:00,
2013-03-13 05:27:00,46.2,46.0,30.22,SSW,200,3.0,5.0,99,0.00,,,0.00,meteohub,2013-03-12 15:27:00,
2013-03-13 05:32:00,46.4,46.2,30.22,SSW,207,3.0,5.0,99,0.00,,,0.00,meteohub,2013-03-12 15:32:00,
2013-03-13 05:37:00,46.4,46.2,30.22,SW,214,6.0,6.0,99,0.00,,,0.00,meteohub,2013-03-12 15:37:00,
2013-03-13 05:43:00,46.2,46.0,30.22,SW,218,5.0,6.0,99,0.00,,,0.00,meteohub,2013-03-12 15:43:00,
2013-03-13 05:48:00,45.9,45.7,30.23,SW,226,4.0,6.0,99,0.00,,,0.00,meteohub,2013-03-12 15:48:00,
2013-03-13 05:53:00,45.3,45.1,30.23,SW,221,5.0,6.0,99,0.00,,,0.00,meteohub,2013-03-12 15:53:00,
2013-03-13 05:58:00,45.0,44.8,30.23,SSW,212,7.0,7.0,99,0.00,,,0.00,meteohub,2013-03-12 15:58:00,
2013-03-13 06:03:00,45.0,44.8,30.23,SW,218,9.0,9.0,99,0.00,,,0.00,meteohub,2013-03-12 16:03:00,
2013-03-13 06:08:00,44.8,44.6,30.23,SW,214,9.0,10.0,99,0.00,,,0.00,meteohub,2013-03-12 16:08:00,
2013-03-13 06:13:00,44.8,44.6,30.23,SW,214,11.0,11.0,99,0.00,,,0.00,meteohub,2013-03-12 16:13:00,
2013-03-13 06:18:00,44.8,44.6,30.23,SSW,207,7.0,11.0,99,0.00,,,0.00,meteohub,2013-03-12 16:18:00,
2013-03-13 06:24:00,44.6,44.4,30.23,SW,217,11.0,13.0,99,0.00,,,0.00,meteohub,2013-03-12 16:24:00,
2013-03-13 06:29:00,44.4,44.2,30.24,SW,231,11.0,13.0,99,0.00,,,0.00,meteohub,2013-03-12 16:29:00,
2013-03-13 06:34:00,44.4,44.2,30.23,SW,227,11.0,14.0,99,0.00,,,0.00,meteohub,2013-03-12 16:34:00,
2013-03-13 06:39:00,44.2,44.1,30.24,SSW,196,6.0,14.0,99,0.00,,,0.00,meteohub,2013-03-12 16:39:00,
2013-03-13 06:44:00,44.2,44.1,30.24,SSW,202,4.0,14.0,99,0.00,,,0.00,meteohub,2013-03-12 16:44:00,
2013-03-13 06:49:00,44.2,44.1,30.23,SW,215,6.0,13.0,99,0.00,,,0.00,meteohub,2013-03-12 16:49:00,
2013-03-13 06:54:00,44.4,44.2,30.23,SSW,210,8.0,12.0,99,0.00,,,0.00,meteohub,2013-03-12 16:54:00,
2013-03-13 06:59:00,45.0,44.8,30.23,SSW,212,8.0,10.0,99,0.00,,,0.00,meteohub,2013-03-12 16:59:00,
2013-03-13 07:05:00,45.1,45.0,30.23,SW,216,8.0,11.0,99,0.00,,,0.00,meteohub,2013-03-12 17:05:00,
2013-03-13 07:10:00,45.1,45.0,30.24,SW,214,10.0,11.0,99,0.00,,,0.00,meteohub,2013-03-12 17:10:00,
2013-03-13 07:15:00,45.1,45.0,30.24,SW,219,8.0,11.0,99,0.00,,,0.00,meteohub,2013-03-12 17:15:00,
2013-03-13 07:21:00,45.0,44.8,30.24,SW,218,8.0,11.0,99,0.00,,,0.00,meteohub,2013-03-12 17:21:00,
2013-03-13 07:26:00,45.0,44.8,30.24,SW,214,8.0,11.0,99,0.00,,,0.00,meteohub,2013-03-12 17:26:00,
2013-03-13 07:31:00,45.1,45.0,30.24,SW,217,6.0,10.0,99,0.00,,,0.00,meteohub,2013-03-12 17:31:00,
2013-03-13 07:37:00,45.1,45.0,30.24,SSW,213,8.0,11.0,99,0.00,,,0.00,meteohub,2013-03-12 17:37:00,
2013-03-13 07:42:00,45.1,45.0,30.24,SW,236,8.0,11.0,99,0.00,,,0.00,meteohub,2013-03-12 17:42:00,
2013-03-13 07:47:00,45.3,45.1,30.24,SW,224,11.0,14.0,99,0.00,,,0.00,meteohub,2013-03-12 17:47:00,
2013-03-13 07:53:00,45.3,45.1,30.24,SW,226,11.0,14.0,99,0.00,,,0.00,meteohub,2013-03-12 17:53:00,
2013-03-13 07:58:00,45.5,45.3,30.25,SW,219,12.0,14.0,99,0.00,,,0.00,meteohub,2013-03-12 17:58:00,
2013-03-13 08:03:00,45.7,45.5,30.24,SW,219,13.0,15.0,99,0.00,,,0.00,meteohub,2013-03-12 18:03:00,
2013-03-13 08:08:00,45.9,45.7,30.24,SSW,197,7.0,15.0,99,0.00,,,0.00,meteohub,2013-03-12 18:08:00,
2013-03-13 08:14:00,46.2,46.2,30.24,SW,222,5.0,15.0,100,0.00,,,0.00,meteohub,2013-03-12 18:14:00,
2013-03-13 08:19:00,46.2,46.0,30.24,SW,221,7.0,15.0,99,0.00,,,0.00,meteohub,2013-03-12 18:19:00,
2013-03-13 08:24:00,46.6,46.4,30.24,SSW,193,3.0,13.0,99,0.00,,,0.00,meteohub,2013-03-12 18:24:00,
2013-03-13 08:29:00,46.8,46.6,30.24,South,190,6.0,13.0,99,0.00,,,0.00,meteohub,2013-03-12 18:29:00,
2013-03-13 08:34:00,47.1,46.9,30.24,SSW,200,4.0,11.0,99,0.00,,,0.00,meteohub,2013-03-12 18:34:00,
2013-03-13 08:40:00,47.1,46.9,30.24,SSW,212,7.0,11.0,99,0.00,,,0.00,meteohub,2013-03-12 18:40:00,
2013-03-13 08:45:00,47.5,47.3,30.25,SW,217,8.0,9.0,99,0.00,,,0.00,meteohub,2013-03-12 18:45:00,
2013-03-13 08:50:00,47.7,47.5,30.25,SW,229,6.0,10.0,99,0.00,,,0.00,meteohub,2013-03-12 18:50:00,
2013-03-13 08:55:00,47.5,47.3,30.25,SW,233,8.0,12.0,99,0.00,,,0.00,meteohub,2013-03-12 18:55:00,
2013-03-13 09:00:00,47.5,47.3,30.25,SW,227,5.0,12.0,99,0.00,,,0.00,meteohub,2013-03-12 19:00:00,
2013-03-13 09:05:00,47.3,47.1,30.25,SW,222,11.0,12.0,99,0.00,,,0.00,meteohub,2013-03-12 19:05:00,
2013-03-13 09:11:00,47.3,47.1,30.25,SW,229,6.0,12.0,99,0.00,,,0.00,meteohub,2013-03-12 19:11:00,
2013-03-13 09:16:00,47.8,47.7,30.25,SSW,203,3.0,13.0,99,0.00,,,0.00,meteohub,2013-03-12 19:16:00,
2013-03-13 09:22:00,47.8,47.7,30.25,SSW,212,7.0,13.0,99,0.00,,,0.00,meteohub,2013-03-12 19:22:00,
2013-03-13 09:27:00,47.7,47.5,30.25,SSW,196,7.0,13.0,99,0.00,,,0.00,meteohub,2013-03-12 19:27:00,
2013-03-13 09:33:00,47.7,47.5,30.24,SW,221,4.0,11.0,99,0.00,,,0.00,meteohub,2013-03-12 19:33:00,
2013-03-13 09:38:00,47.8,47.7,30.24,SSW,210,6.0,11.0,99,0.00,,,0.00,meteohub,2013-03-12 19:38:00,
2013-03-13 09:43:00,48.4,48.2,30.24,SW,224,5.0,10.0,99,0.00,,,0.00,meteohub,2013-03-12 19:43:00,
2013-03-13 09:48:00,48.4,48.2,30.24,SW,219,6.0,10.0,99,0.00,,,0.00,meteohub,2013-03-12 19:48:00,
2013-03-13 09:53:00,48.4,48.2,30.24,SW,225,4.0,9.0,99,0.00,,,0.00,meteohub,2013-03-12 19:53:00,
2013-03-13 09:58:00,48.7,48.6,30.24,SW,228,7.0,9.0,99,0.00,,,0.00,meteohub,2013-03-12 19:58:00,
2013-03-13 10:04:00,48.9,48.7,30.24,SW,220,7.0,10.0,99,0.00,,,0.00,meteohub,2013-03-12 20:04:00,
2013-03-13 10:09:00,49.1,48.9,30.24,WSW,242,7.0,10.0,99,0.00,,,0.00,meteohub,2013-03-12 20:09:00,
2013-03-13 10:14:00,48.9,48.7,30.24,West,267,5.0,10.0,99,0.00,,,0.00,meteohub,2013-03-12 20:14:00,
2013-03-13 10:20:00,48.9,48.7,30.24,SW,229,5.0,12.0,99,0.00,,,0.00,meteohub,2013-03-12 20:20:00,
2013-03-13 10:25:00,48.7,48.6,30.23,SW,229,9.0,12.0,99,0.00,,,0.00,meteohub,2013-03-12 20:25:00,
2013-03-13 10:30:00,48.7,48.2,30.23,SW,219,11.0,14.0,98,0.00,,,0.00,meteohub,2013-03-12 20:30:00,
2013-03-13 10:35:00,49.3,49.1,30.23,SW,226,7.0,14.0,99,0.00,,,0.00,meteohub,2013-03-12 20:35:00,
2013-03-13 10:40:00,49.3,48.7,30.23,SW,218,6.0,14.0,98,0.00,,,0.00,meteohub,2013-03-12 20:40:00,
2013-03-13 10:45:00,49.5,48.9,30.22,SW,226,9.0,12.0,98,0.00,,,0.00,meteohub,2013-03-12 20:45:00,
2013-03-13 10:51:00,49.6,49.1,30.23,SW,231,9.0,12.0,98,0.00,,,0.00,meteohub,2013-03-12 20:51:00,
2013-03-13 10:56:00,50.0,49.6,30.23,WSW,246,9.0,13.0,99,0.00,,,0.00,meteohub,2013-03-12 20:56:00,
2013-03-13 11:01:00,50.2,49.6,30.22,SW,233,4.0,13.0,98,0.00,,,0.00,meteohub,2013-03-12 21:01:00,
2013-03-13 11:07:00,50.2,49.3,30.23,WSW,243,9.0,12.0,97,0.00,,,0.00,meteohub,2013-03-12 21:07:00,
2013-03-13 11:12:00,50.2,49.3,30.23,SW,236,7.0,12.0,97,0.00,,,0.00,meteohub,2013-03-12 21:12:00,
2013-03-13 11:17:00,50.4,49.5,30.23,SW,225,7.0,14.0,97,0.00,,,0.00,meteohub,2013-03-12 21:17:00,
2013-03-13 11:22:00,50.2,49.1,30.23,SW,232,5.0,14.0,96,0.00,,,0.00,meteohub,2013-03-12 21:22:00,
2013-03-13 11:27:00,50.4,48.9,30.23,WSW,248,8.0,14.0,95,0.00,,,0.00,meteohub,2013-03-12 21:27:00,
2013-03-13 11:33:00,50.2,49.1,30.22,SW,224,8.0,12.0,96,0.00,,,0.00,meteohub,2013-03-12 21:33:00,
2013-03-13 11:38:00,50.4,48.9,30.22,SW,215,6.0,11.0,95,0.00,,,0.00,meteohub,2013-03-12 21:38:00,
2013-03-13 11:43:00,50.4,49.3,30.22,SW,230,6.0,11.0,96,0.00,,,0.00,meteohub,2013-03-12 21:43:00,
2013-03-13 11:49:00,50.4,48.7,30.21,SW,214,7.0,11.0,94,0.00,,,0.00,meteohub,2013-03-12 21:49:00,
2013-03-13 11:54:00,50.4,48.7,30.21,SW,215,7.0,9.0,94,0.00,,,0.00,meteohub,2013-03-12 21:54:00,
2013-03-13 11:59:00,50.7,48.7,30.21,SW,215,6.0,10.0,93,0.00,,,0.00,meteohub,2013-03-12 21:59:00,
2013-03-13 12:05:00,51.3,49.1,30.21,SW,228,5.0,10.0,92,0.00,,,0.00,meteohub,2013-03-12 22:05:00,
2013-03-13 12:10:00,51.3,48.2,30.21,SW,231,7.0,11.0,89,0.00,,,0.00,meteohub,2013-03-12 22:10:00,
2013-03-13 12:15:00,52.0,48.9,30.21,SW,234,7.0,11.0,89,0.00,,,0.00,meteohub,2013-03-12 22:15:00,
2013-03-13 12:20:00,51.8,48.9,30.22,WSW,251,9.0,11.0,90,0.00,,,0.00,meteohub,2013-03-12 22:20:00,
2013-03-13 12:26:00,51.8,48.4,30.22,WSW,257,8.0,12.0,88,0.00,,,0.00,meteohub,2013-03-12 22:26:00,
2013-03-13 12:31:00,51.8,48.4,30.22,WSW,250,10.0,12.0,88,0.00,,,0.00,meteohub,2013-03-12 22:31:00,
2013-03-13 12:36:00,51.6,48.2,30.22,SW,228,6.0,12.0,88,0.00,,,0.00,meteohub,2013-03-12 22:36:00,
2013-03-13 12:41:00,52.0,48.2,30.21,SW,233,5.0,12.0,87,0.00,,,0.00,meteohub,2013-03-12 22:41:00,
2013-03-13 12:47:00,52.0,48.6,30.22,West,269,7.0,12.0,88,0.00,,,0.00,meteohub,2013-03-12 22:47:00,
2013-03-13 12:52:00,52.0,48.2,30.21,WSW,238,3.0,9.0,87,0.00,,,0.00,meteohub,2013-03-12 22:52:00,
2013-03-13 12:57:00,52.2,48.7,30.21,SW,234,5.0,10.0,88,0.00,,,0.00,meteohub,2013-03-12 22:57:00,
2013-03-13 13:03:00,52.2,48.4,30.21,West,263,8.0,10.0,87,0.00,,,0.00,meteohub,2013-03-12 23:03:00,
2013-03-13 13:08:00,52.0,47.8,30.21,West,269,4.0,8.0,86,0.00,,,0.00,meteohub,2013-03-12 23:08:00,
2013-03-13 13:13:00,52.0,47.8,30.21,SW,228,2.0,9.0,86,0.00,,,0.00,meteohub,2013-03-12 23:13:00,
2013-03-13 13:18:00,52.2,48.0,30.20,WSW,250,3.0,9.0,86,0.00,,,0.00,meteohub,2013-03-12 23:18:00,
2013-03-13 13:23:00,52.5,48.7,30.21,SW,230,6.0,7.0,87,0.00,,,0.00,meteohub,2013-03-12 23:23:00,
2013-03-13 13:28:00,52.9,49.1,30.21,WSW,248,5.0,8.0,87,0.00,,,0.00,meteohub,2013-03-12 23:28:00,
2013-03-13 13:33:00,53.4,49.3,30.21,SW,233,7.0,11.0,86,0.00,,,0.00,meteohub,2013-03-12 23:33:00,
2013-03-13 13:39:00,53.1,48.0,30.20,SW,223,7.0,11.0,83,0.00,,,0.00,meteohub,2013-03-12 23:39:00,
2013-03-13 13:44:00,53.1,48.9,30.19,South,175,2.0,11.0,86,0.00,,,0.00,meteohub,2013-03-12 23:44:00,
2013-03-13 13:49:00,53.2,48.2,30.20,SW,232,3.0,9.0,83,0.00,,,0.00,meteohub,2013-03-12 23:49:00,
2013-03-13 13:54:00,53.1,48.4,30.20,WSW,245,5.0,10.0,84,0.00,,,0.00,meteohub,2013-03-12 23:54:00,
2013-03-13 14:00:00,53.1,48.4,30.20,SW,236,8.0,10.0,84,0.00,,,0.00,meteohub,2013-03-13 00:00:00,
2013-03-13 14:05:00,54.0,48.6,30.19,SSW,213,4.0,8.0,82,0.00,,,0.00,meteohub,2013-03-13 00:05:00,
2013-03-13 14:10:00,54.9,49.5,30.19,SSW,207,1.0,8.0,82,0.00,,,0.00,meteohub,2013-03-13 00:10:00,
2013-03-13 14:15:00,55.2,47.8,30.19,SSW,203,4.0,8.0,76,0.00,,,0.00,meteohub,2013-03-13 00:15:00,
2013-03-13 14:21:00,55.0,48.0,30.19,SW,218,6.0,8.0,77,0.00,,,0.00,meteohub,2013-03-13 00:21:00,
2013-03-13 14:26:00,54.9,48.2,30.19,WSW,249,4.0,7.0,78,0.00,,,0.00,meteohub,2013-03-13 00:26:00,
2013-03-13 14:32:00,54.9,48.7,30.19,WSW,251,5.0,9.0,80,0.00,,,0.00,meteohub,2013-03-13 00:32:00,
2013-03-13 14:37:00,54.0,47.3,30.19,SW,219,5.0,9.0,78,0.00,,,0.00,meteohub,2013-03-13 00:37:00,
2013-03-13 14:42:00,53.8,47.5,30.19,WSW,253,5.0,9.0,79,0.00,,,0.00,meteohub,2013-03-13 00:42:00,
2013-03-13 14:47:00,53.2,47.3,30.19,West,264,1.0,8.0,80,0.00,,,0.00,meteohub,2013-03-13 00:47:00,
2013-03-13 14:52:00,53.2,47.5,30.19,SW,232,5.0,8.0,81,0.00,,,0.00,meteohub,2013-03-13 00:52:00,
2013-03-13 14:57:00,53.1,47.3,30.19,SW,219,3.0,6.0,81,0.00,,,0.00,meteohub,2013-03-13 00:57:00,
2013-03-13 15:03:00,52.9,47.5,30.19,WSW,255,3.0,5.0,82,0.00,,,0.00,meteohub,2013-03-13 01:03:00,
2013-03-13 15:08:00,52.7,47.3,30.19,West,274,3.0,6.0,82,0.00,,,0.00,meteohub,2013-03-13 01:08:00,
2013-03-13 15:13:00,52.5,47.5,30.19,WNW,285,4.0,6.0,83,0.00,,,0.00,meteohub,2013-03-13 01:13:00,
2013-03-13 15:18:00,52.5,47.5,30.19,WNW,293,3.0,6.0,83,0.00,,,0.00,meteohub,2013-03-13 01:18:00,
2013-03-13 15:23:00,52.3,47.7,30.19,WNW,290,3.0,4.0,84,0.00,,,0.00,meteohub,2013-03-13 01:23:00,
2013-03-13 15:28:00,52.3,47.3,30.19,West,271,3.0,4.0,83,0.00,,,0.00,meteohub,2013-03-13 01:28:00,
2013-03-13 15:33:00,52.3,47.3,30.19,West,276,4.0,4.0,83,0.00,,,0.00,meteohub,2013-03-13 01:33:00,
2013-03-13 15:39:00,52.3,46.9,30.19,West,259,5.0,5.0,82,0.00,,,0.00,meteohub,2013-03-13 01:39:00,
2013-03-13 15:44:00,52.5,47.1,30.19,WSW,252,5.0,5.0,82,0.00,,,0.00,meteohub,2013-03-13 01:44:00,
2013-03-13 15:49:00,52.5,47.1,30.19,WSW,251,3.0,7.0,82,0.00,,,0.00,meteohub,2013-03-13 01:49:00,
2013-03-13 15:54:00,52.5,47.1,30.19,West,266,4.0,7.0,82,0.00,,,0.00,meteohub,2013-03-13 01:54:00,
2013-03-13 15:59:00,52.5,47.5,30.19,West,260,4.0,6.0,83,0.00,,,0.00,meteohub,2013-03-13 01:59:00,
2013-03-13 16:04:00,52.5,47.5,30.19,WSW,253,4.0,5.0,83,0.00,,,0.00,meteohub,2013-03-13 02:04:00,
2013-03-13 16:09:00,52.3,47.3,30.19,WSW,241,3.0,5.0,83,0.00,,,0.00,meteohub,2013-03-13 02:09:00,
2013-03-13 16:15:00,52.3,47.3,30.20,West,266,1.0,5.0,83,0.00,,,0.00,meteohub,2013-03-13 02:15:00,
2013-03-13 16:20:00,52.2,47.5,30.20,WSW,249,2.0,6.0,84,0.00,,,0.00,meteohub,2013-03-13 02:20:00,
2013-03-13 16:25:00,52.3,47.3,30.20,West,265,2.0,6.0,83,0.00,,,0.00,meteohub,2013-03-13 02:25:00,
2013-03-13 16:30:00,52.3,47.7,30.20,WNW,285,0.0,4.0,84,0.00,,,0.00,meteohub,2013-03-13 02:30:00,
2013-03-13 16:36:00,52.3,47.3,30.20,SW,216,1.0,4.0,83,0.00,,,0.00,meteohub,2013-03-13 02:36:00,
2013-03-13 16:41:00,52.3,47.7,30.20,WSW,240,1.0,3.0,84,0.00,,,0.00,meteohub,2013-03-13 02:41:00,
2013-03-13 16:46:00,52.3,47.3,30.20,WSW,250,1.0,2.0,83,0.00,,,0.00,meteohub,2013-03-13 02:46:00,
2013-03-13 16:52:00,52.3,47.3,30.21,SW,217,3.0,3.0,83,0.00,,,0.00,meteohub,2013-03-13 02:52:00,
2013-03-13 16:57:00,52.3,47.3,30.21,West,262,3.0,4.0,83,0.00,,,0.00,meteohub,2013-03-13 02:57:00,
2013-03-13 17:02:00,52.3,47.3,30.21,WSW,240,1.0,4.0,83,0.00,,,0.00,meteohub,2013-03-13 03:02:00,
2013-03-13 17:07:00,52.3,47.3,30.21,South,184,0.0,4.0,83,0.00,,,0.00,meteohub,2013-03-13 03:07:00,
2013-03-13 17:12:00,52.2,47.5,30.21,SSE,160,2.0,4.0,84,0.00,,,0.00,meteohub,2013-03-13 03:12:00,
2013-03-13 17:18:00,52.0,47.3,30.21,SSW,205,1.0,2.0,84,0.00,,,0.00,meteohub,2013-03-13 03:18:00,
2013-03-13 17:23:00,52.2,47.1,30.21,SW,226,4.0,4.0,83,0.00,,,0.00,meteohub,2013-03-13 03:23:00,
2013-03-13 17:28:00,52.2,47.1,30.22,WSW,238,2.0,4.0,83,0.00,,,0.00,meteohub,2013-03-13 03:28:00,
2013-03-13 17:33:00,52.3,47.3,30.22,West,279,2.0,4.0,83,0.00,,,0.00,meteohub,2013-03-13 03:33:00,
2013-03-13 17:38:00,52.0,47.7,30.22,West,278,3.0,4.0,85,0.00,,,0.00,meteohub,2013-03-13 03:38:00,
2013-03-13 17:43:00,51.1,47.7,30.22,West,271,2.0,8.0,88,0.00,,,0.00,meteohub,2013-03-13 03:43:00,
2013-03-13 17:49:00,50.2,47.1,30.22,NW,326,9.0,9.0,89,0.00,,,0.00,meteohub,2013-03-13 03:49:00,
2013-03-13 17:54:00,49.6,46.2,30.22,NNW,329,8.0,8.0,88,0.00,,,0.00,meteohub,2013-03-13 03:54:00,
2013-03-13 17:59:00,49.3,46.4,30.22,NNW,337,4.0,11.0,90,0.00,,,0.00,meteohub,2013-03-13 03:59:00,
2013-03-13 18:00:00,49.3,46.4,30.22,NW,318,4.0,11.0,90,0.00,,,0.00,meteohub,2013-03-13 04:00:00,
2013-03-13 18:03:00,48.9,45.9,30.22,NNW,330,6.0,11.0,89,0.00,,,0.00,meteohub,2013-03-13 04:03:00,
2013-03-13 18:08:00,48.7,45.9,30.22,NNW,330,7.0,11.0,90,0.00,,,0.00,meteohub,2013-03-13 04:08:00,
2013-03-13 18:14:00,48.7,45.9,30.23,NW,314,8.0,9.0,90,0.00,,,0.00,meteohub,2013-03-13 04:14:00,
2013-03-13 18:19:00,48.4,44.8,30.23,NW,322,7.0,9.0,87,0.00,,,0.00,meteohub,2013-03-13 04:19:00,
2013-03-13 18:24:00,48.6,45.5,30.23,NW,317,5.0,9.0,89,0.00,,,0.00,meteohub,2013-03-13 04:24:00,
2013-03-13 18:30:00,49.1,45.3,30.22,NW,321,6.0,9.0,87,0.00,,,0.00,meteohub,2013-03-13 04:30:00,
2013-03-13 18:35:00,49.3,45.5,30.22,NW,322,5.0,9.0,87,0.00,,,0.00,meteohub,2013-03-13 04:35:00,
2013-03-13 18:40:00,49.3,45.5,30.22,NNE,13,3.0,7.0,87,0.00,,,0.00,meteohub,2013-03-13 04:40:00,
2013-03-13 18:45:00,49.3,45.9,30.22,NNE,31,0.0,6.0,88,0.00,,,0.00,meteohub,2013-03-13 04:45:00,
2013-03-13 18:50:00,49.1,45.7,30.22,WNW,285,0.0,5.0,88,0.00,,,0.00,meteohub,2013-03-13 04:50:00,
2013-03-13 18:55:00,48.9,45.1,30.22,South,176,0.0,3.0,87,0.00,,,0.00,meteohub,2013-03-13 04:55:00,
2013-03-13 19:01:00,48.9,45.5,30.23,SW,221,3.0,3.0,88,0.00,,,0.00,meteohub,2013-03-13 05:01:00,
2013-03-13 19:06:00,48.4,44.8,30.23,WSW,254,3.0,3.0,87,0.00,,,0.00,meteohub,2013-03-13 05:06:00,
2013-03-13 19:11:00,48.7,45.3,30.23,WNW,294,4.0,4.0,88,0.00,,,0.00,meteohub,2013-03-13 05:11:00,
2013-03-13 19:17:00,48.9,44.6,30.23,West,274,6.0,6.0,85,0.00,,,0.00,meteohub,2013-03-13 05:17:00,
2013-03-13 19:22:00,48.9,43.7,30.23,WNW,293,8.0,8.0,82,0.00,,,0.00,meteohub,2013-03-13 05:22:00,
2013-03-13 19:27:00,48.9,43.7,30.23,WNW,285,6.0,8.0,82,0.00,,,0.00,meteohub,2013-03-13 05:27:00,
2013-03-13 19:32:00,48.9,43.7,30.23,West,266,3.0,9.0,82,0.00,,,0.00,meteohub,2013-03-13 05:32:00,
2013-03-13 19:37:00,48.9,43.3,30.23,WNW,283,5.0,9.0,81,0.00,,,0.00,meteohub,2013-03-13 05:37:00,
2013-03-13 19:42:00,48.9,43.3,30.23,WNW,283,5.0,6.0,81,0.00,,,0.00,meteohub,2013-03-13 05:42:00,
2013-03-13 19:47:00,48.7,43.5,30.23,West,268,5.0,7.0,82,0.00,,,0.00,meteohub,2013-03-13 05:47:00,
2013-03-13 19:53:00,48.7,43.2,30.23,West,276,6.0,7.0,81,0.00,,,0.00,meteohub,2013-03-13 05:53:00,
2013-03-13 19:58:00,48.7,42.4,30.24,WNW,285,6.0,7.0,79,0.00,,,0.00,meteohub,2013-03-13 05:58:00,
2013-03-13 20:03:00,48.7,42.4,30.23,WNW,288,6.0,8.0,79,0.00,,,0.00,meteohub,2013-03-13 06:03:00,
2013-03-13 20:08:00,48.6,42.1,30.23,WNW,288,7.0,8.0,78,0.00,,,0.00,meteohub,2013-03-13 06:08:00,
2013-03-13 20:13:00,48.6,42.1,30.23,WNW,292,6.0,8.0,78,0.00,,,0.00,meteohub,2013-03-13 06:13:00,
2013-03-13 20:19:00,48.6,42.1,30.23,WNW,291,6.0,8.0,78,0.00,,,0.00,meteohub,2013-03-13 06:19:00,
2013-03-13 20:24:00,48.6,42.1,30.23,WNW,292,7.0,8.0,78,0.00,,,0.00,meteohub,2013-03-13 06:24:00,
2013-03-13 20:29:00,48.6,42.1,30.23,WNW,295,5.0,8.0,78,0.00,,,0.00,meteohub,2013-03-13 06:29:00,
2013-03-13 20:35:00,48.4,41.9,30.24,West,275,5.0,8.0,78,0.00,,,0.00,meteohub,2013-03-13 06:35:00,
2013-03-13 20:40:00,48.4,42.3,30.24,West,271,5.0,8.0,79,0.00,,,0.00,meteohub,2013-03-13 06:40:00,
2013-03-13 20:45:00,48.0,41.9,30.23,WNW,294,7.0,7.0,79,0.00,,,0.00,meteohub,2013-03-13 06:45:00,
2013-03-13 20:50:00,48.0,42.1,30.23,West,278,7.0,8.0,80,0.00,,,0.00,meteohub,2013-03-13 06:50:00,
2013-03-13 20:55:00,47.8,41.9,30.23,WSW,256,7.0,8.0,80,0.00,,,0.00,meteohub,2013-03-13 06:55:00,
2013-03-13 21:01:00,47.8,42.3,30.23,WSW,250,6.0,9.0,81,0.00,,,0.00,meteohub,2013-03-13 07:01:00,
2013-03-13 21:06:00,47.7,42.1,30.23,WSW,254,5.0,9.0,81,0.00,,,0.00,meteohub,2013-03-13 07:06:00,
2013-03-13 21:11:00,47.7,42.1,30.23,WSW,253,6.0,9.0,81,0.00,,,0.00,meteohub,2013-03-13 07:11:00,
2013-03-13 21:16:00,47.5,42.3,30.23,WSW,248,5.0,8.0,82,0.00,,,0.00,meteohub,2013-03-13 07:16:00,
2013-03-13 21:22:00,47.5,42.8,30.23,WSW,251,5.0,7.0,84,0.00,,,0.00,meteohub,2013-03-13 07:22:00,
2013-03-13 21:27:00,47.5,42.6,30.22,SW,224,5.0,7.0,83,0.00,,,0.00,meteohub,2013-03-13 07:27:00,
2013-03-13 21:32:00,47.5,43.2,30.22,SW,221,5.0,6.0,85,0.00,,,0.00,meteohub,2013-03-13 07:32:00,
2013-03-13 21:37:00,47.5,43.5,30.22,SW,218,6.0,6.0,86,0.00,,,0.00,meteohub,2013-03-13 07:37:00,
2013-03-13 21:43:00,47.7,44.1,30.22,SW,219,5.0,6.0,87,0.00,,,0.00,meteohub,2013-03-13 07:43:00,
2013-03-13 21:48:00,47.7,44.1,30.22,SW,217,6.0,6.0,87,0.00,,,0.00,meteohub,2013-03-13 07:48:00,
2013-03-13 21:53:00,47.7,44.1,30.22,SW,214,6.0,6.0,87,0.00,,,0.00,meteohub,2013-03-13 07:53:00,
2013-03-13 21:58:00,47.8,43.9,30.22,SW,216,7.0,7.0,86,0.00,,,0.00,meteohub,2013-03-13 07:58:00,
2013-03-13 22:03:00,47.8,43.9,30.22,SW,218,8.0,8.0,86,0.00,,,0.00,meteohub,2013-03-13 08:03:00,
2013-03-13 22:08:00,48.2,44.2,30.22,SW,222,8.0,9.0,86,0.00,,,0.00,meteohub,2013-03-13 08:08:00,
2013-03-13 22:13:00,48.4,44.8,30.23,WSW,248,6.0,10.0,87,0.00,,,0.00,meteohub,2013-03-13 08:13:00,
2013-03-13 22:19:00,48.0,44.1,30.23,WSW,238,4.0,10.0,86,0.00,,,0.00,meteohub,2013-03-13 08:19:00,
2013-03-13 22:24:00,47.8,44.2,30.23,SW,225,4.0,9.0,87,0.00,,,0.00,meteohub,2013-03-13 08:24:00,
2013-03-13 22:29:00,47.7,44.2,30.22,WSW,252,6.0,9.0,88,0.00,,,0.00,meteohub,2013-03-13 08:29:00,
2013-03-13 22:34:00,47.3,43.7,30.23,SW,236,4.0,8.0,87,0.00,,,0.00,meteohub,2013-03-13 08:34:00,
2013-03-13 22:39:00,47.1,43.5,30.23,WSW,248,5.0,6.0,87,0.00,,,0.00,meteohub,2013-03-13 08:39:00,
2013-03-13 22:44:00,46.8,42.8,30.23,West,263,3.0,6.0,86,0.00,,,0.00,meteohub,2013-03-13 08:44:00,
2013-03-13 22:50:00,46.8,43.2,30.23,West,269,4.0,6.0,87,0.00,,,0.00,meteohub,2013-03-13 08:50:00,
2013-03-13 22:55:00,46.8,43.3,30.23,West,271,5.0,6.0,88,0.00,,,0.00,meteohub,2013-03-13 08:55:00,
2013-03-13 23:00:00,46.8,43.7,30.23,West,262,5.0,6.0,89,0.00,,,0.00,meteohub,2013-03-13 09:00:00,
2013-03-13 23:05:00,46.8,43.7,30.24,West,268,5.0,6.0,89,0.00,,,0.00,meteohub,2013-03-13 09:05:00,
2013-03-13 23:10:00,46.6,43.5,30.24,WNW,283,3.0,6.0,89,0.00,,,0.00,meteohub,2013-03-13 09:10:00,
2013-03-13 23:16:00,46.2,43.2,30.24,West,280,2.0,5.0,89,0.00,,,0.00,meteohub,2013-03-13 09:16:00,
2013-03-13 23:21:00,46.4,43.3,30.24,WSW,257,2.0,5.0,89,0.00,,,0.00,meteohub,2013-03-13 09:21:00,
2013-03-13 23:27:00,46.4,43.3,30.24,SW,233,3.0,4.0,89,0.00,,,0.00,meteohub,2013-03-13 09:27:00,
2013-03-13 23:32:00,46.2,43.2,30.24,SW,221,3.0,4.0,89,0.00,,,0.00,meteohub,2013-03-13 09:32:00,
2013-03-13 23:37:00,46.2,43.5,30.24,WSW,252,3.0,5.0,90,0.00,,,0.00,meteohub,2013-03-13 09:37:00,
2013-03-13 23:43:00,46.0,43.5,30.25,SW,233,4.0,5.0,91,0.00,,,0.00,meteohub,2013-03-13 09:43:00,
2013-03-13 23:48:00,46.0,43.5,30.25,SW,218,3.0,4.0,91,0.00,,,0.00,meteohub,2013-03-13 09:48:00,
2013-03-13 23:53:00,46.0,43.9,30.25,SSW,210,4.0,5.0,92,0.00,,,0.00,meteohub,2013-03-13 09:53:00,
2013-03-13 23:58:00,46.0,43.9,30.25,SW,214,3.0,7.0,92,0.00,,,0.00,meteohub,2013-03-13 09:58:00,